Weather in Bogmallo

India     15°22′30″N   73°50′54″E
temp.,
°C
wind,
m/s
gust,
m/s
humid.,
%
clouds,
%
prec.,
mm/h
press.,
hPa
HPBL,
m
7 march, sun
sun723:30+26nnw45820 0.0 1013446
02:30+25ne22840 0.0 1011213
05:30+24ene22891 0.0 1010112
08:30+25ne22793 0.0 1013220
11:30+28w43691 0.0 1014404
14:30+28w77670 0.0 1009349
17:30+29nw78660 0.0 1008487
20:30+28nnw711660 0.0 1010429
8 march, mon
mon823:30+27n68580 0.0 1011368
02:30+25nne45590 0.0 1009214
05:30+25nne35550 0.0 1010287
08:30+26e22580 0.0 1013198
11:30+29sw43520 0.0 1013365
14:30+29wsw56590 0.0 1009317
17:30+30nw34530 0.0 1007352
20:30+28nw56650 0.0 1011215
9 march, tue
tue923:30+26n34590 0.0 1011228
02:30+25ene22600 0.0 1010122
05:30+25ese22640 0.0 1010145
08:30+26ese23670 0.0 1013223
11:30+29sw33600 0.0 1013500
14:30+29w66640 0.0 1009374
17:30+29nw67720 0.0 1009483
20:30+27nnw56740 0.0 1011382
10 march, wed
wed1023:30+26nne34720 0.0 1012270
02:30+25nne22730 0.0 1010119
05:30+24ese22770 0.0 1010178
08:30+26ese33730 0.0 1013234
11:30+29sw43620 0.0 1013418
14:30+29w66610 0.0 1008323
17:30+29nw67690 0.0 1008425
20:30+28nnw46720 0.0 1010249
11 march, thu
thu1123:30+27nne34650 0.0 1011213
02:30+25ne11660 0.0 1009110
05:30+25ese33760 0.0 1010179
08:30+27sse45730 0.0 1013581
11:30+29ssw44630 0.0 1012608
14:30+29w66620 0.0 1008471
17:30+28nw56700 0.0 1008531
20:30+28nw56720 0.0 1011423